ABS-3A (40424 NORAD) Tracking and Keplerian Element Data

This shows tracking and keplerian element data for the satellite.

Feedback or suggestion? Click here.




ElementValue
Catalog40424
NameABS-3A
Epoch Orbit1865
Epoch Day92.05396649
Epoch Year2020
RAAN96.3928
Inclination0.0087
Eccentricity0.0002073
Argument of Perigee204.0341
Mean Anonmoly265.9078
Mean Motion1.00271813
Decay Rate-3E-07
L11 40424U 15010A 20092.05396649 -.00000030 00000-0 00000+0 0 9999
L22 40424 0.0087 96.3928 0002073 204.0341 265.9078 1.00271813 18654

Live tracking and technical data element details for ABS-3A (NORAD 40424). ABS-3A can be tracked NOW for your location showing map with azimuth and elevation plus other details from your city location.

Track the satellite on the map from your city or location and see movement details for azimuth, elevation, latitude, longitude, range, height, and movement on the map or in text.







IsCatalogInMostPopularTable: catalog: 40424, numindb: 360
Update: records affected: 1



GetName: 40424 ABS-3A

Hit Count: updated at: Fri, 03 Apr 2020 08:53:31 GMT